Location: Pasarilla del Rebollar
(40.6790°N, 5.0062°W)
Time: 11:14:58
(UTC+00:00)

Cosmos 1408 Rocket - Pass Details

Date: 22 April 2026
Orbit: 593 x 624 km, 82.6° (Epoch: 15 May)

Event Time Altitude Azimuth Distance (km) Brightness Sun altitude
Rises 04:48:30 0° 347° (NNW) 2,849 7.1 -8.4°
Reaches altitude 10° 04:50:45 10° 343° (NNW) 1,939 6.2 -8.0°
Maximum altitude 04:54:55 54° 266° (W) 728 3.6 -7.3°
Drops below altitude 10° 04:59:03 10° 190° (S) 1,918 5.8 -6.6°
Sets 05:01:16 0° 185° (S) 2,814 6.7 -6.2°
